Skip Page Navigation
NASA JPL Caltech
NASA Logo - Jet Propulsion Laboratory + View the NASA Portal
+ Center for Near-Earth Object Studies
JPL Home Earth Solar System Stars & Galaxies Technology
JPL Solar System Dynamics
BODIES ORBITS EPHEMERIDES TOOLS PHYSICAL DATA DISCOVERY FAQ SITE MAP
JPL Small-Body Database Browser
Search: [ help ]  
47718 (2000 DV29)
Classification: Main-belt Asteroid          SPK-ID: 2047718
Ephemeris | Orbit Diagram | Orbital Elements | Mission Design | Physical Parameters | Discovery Circumstances | Close-Approach Data ]

[ show orbit diagram ]
Orbital Elements at Epoch 2459000.5 (2020-May-31.0) TDB
Reference: JPL 14 (heliocentric ecliptic J2000)
 Element Value Uncertainty (1-sigma)   Units 
e .08991978076247074 3.9479e-08  
a 2.787959863141114 1.9796e-08 au
q 2.537267123472898 1.1322e-07 au
i 4.010561604623589 5.4893e-06 deg
node 162.6901311232383 6.0754e-05 deg
peri 254.1550488509563 6.8237e-05 deg
M 213.0851373216624 3.3512e-05 deg
tp 2459694.391288823550
(2022-Apr-24.89128882)
0.00016194 TDB
period 1700.310366306531
4.66
1.8109e-05
4.958e-08
d
yr
n .2117260513926076 2.255e-09 deg/d
Q 3.038652602809331 2.1576e-08 au
  Orbit Determination Parameters
   # obs. used (total)      633  
   data-arc span      9366 days (25.64 yr)  
   first obs. used      1993-09-14  
   last obs. used      2019-05-07  
   planetary ephem.      DE431  
   SB-pert. ephem.      SB431-N16  
   condition code      0  
   norm. resid. RMS      .54763  
   source      ORB  
   producer      Otto Matic  
   solution date      2019-May-30 04:36:20  

Additional Information
 Earth MOID = 1.55261 au 
 Jupiter MOID = 2.24585 au 
 T_jup = 3.321 
[ show covariance matrix ]

Ephemeris | Orbit Diagram | Orbital Elements | Mission Design | Physical Parameters | Discovery Circumstances | Close-Approach Data ]

Physical Parameter Table
Parameter Symbol Value Units Sigma Reference Notes
absolute magnitude H 15.2   n/a MPO432035  

47718 (2000 DV29)          Discovered 2000-Feb-29 by LINEAR at Socorro
Reference: 20020921/Numbers.arcLast Updated: 2004-04-19

[ show close-approach data ]
Alternate Designations
 2000 DV29 = 1993 RU11 
Ephemeris | Orbit Diagram | Orbital Elements | Mission Design | Physical Parameters | Discovery Circumstances | Close-Approach Data ]
ABOUT SSD CREDITS/AWARDS PRIVACY/COPYRIGHT GLOSSARY LINKS
FirstGov 2021-Jan-23 22:07 UT
(server date/time)  
NASA Home Page
Site Manager:   Ryan S. Park
Webmaster  Alan B. Chamberlin